Location: Pamplona-Iru�ea
(42.8170°N, 1.6330°W)
Time: 05:27:33
(UTC+01:00)

ISS - Visible Passes

Search period start: 16 February 2019 00:00
Search period end: 26 February 2019 00:00
Orbit: 403 x 411 km, 51.6° (Epoch: 16 February)

Date Brightness Start Highest point End Pass type
(mag) Time Alt. Az. Time Alt. Az. Time Alt. Az.
22 Feb -1.7 07:21:52 10° SSW 07:24:45 29° SE 07:27:38 10° ENE visible
23 Feb -1.0 06:31:18 10° S 06:33:25 16° SE 06:35:32 10° E visible
24 Feb -3.6 07:14:50 10° SW 07:18:05 72° SE 07:21:21 10° ENE visible
25 Feb -2.5 06:24:29 17° SSW 06:26:38 38° SE 06:29:41 10° ENE visible
